Location: Shepherdstown, WV
(39.4326°N, 77.8042°W)
Time: 18:22:50
(UTC-04:00)

X-37B - Pass Details

Date: 27 June 2021
Orbit: 383 x 392 km, 45.0° (Epoch: 01 July)

Event Time Altitude Azimuth Distance (km) Brightness Sun altitude
Rises 21:59:10 0° 274° (W) 2,255 5.3 -12.5°
Reaches altitude 10° 22:01:22 10° 285° (WNW) 1,401 4.4 -12.8°
Maximum altitude 22:04:14 31° 351° (N) 692 2.4 -13.2°
Drops below altitude 10° 22:07:07 10° 56° (ENE) 1,402 3.3 -13.6°
Enters shadow 22:08:58 - 66° (ENE) 2,115 4.1 -13.8°
